Location: Newark
(34.3481°N, 134.0494°E)
Time: 21:51:23
(UTC+00:00)

Vanguard 3 - Pass Details

Date: 03 February 2020
Orbit: 508 x 3263 km, 33.3° (Epoch: 19 February)

Event Time Altitude Azimuth Distance (km) Brightness Sun altitude
Rises 11:52:20 0° 286° (WNW) 7,218 12.8 -41.0°
Reaches altitude 10° 11:57:27 10° 282° (WNW) 6,198 12.3 -42.0°
Maximum altitude 12:15:35 50° 216° (SW) 3,283 10.1 -45.7°
Enters shadow 12:18:22 46° 191° (S) 3,221 9.9 -46.3°
Drops below altitude 10° 12:28:14 10° 145° (SE) 4,423 - -48.2°
Sets 12:31:14 0° 140° (SE) 5,094 - -48.8°
